Back to catalog

STARLINK-2228

AliveCommunicationsVLEO
NORAD 48576·PAYLOAD·🇺🇸 United States

Launched May 15, 2021 from Cape Canaveral Space Force Station

Loading…

Next Passes (next 24 hours)

TLE

FreshSource: CelesTrak SupGP

Epoch: Sep 14, 2026, 13:02 UTC

1 48576C 21041Z   26257.54354167  .00044157  00000+0  14200-2 0  2571
2 48576  53.1568 302.1834 0001211  85.1142 222.9848 15.31679773    12

Track STARLINK-2228 in real time with AllMySat

Download on the App Store